Wind_Speed
10 10 10 10 11 11 12 12 12 13 13 13 13 13 13 13 13 13 13 13 13 14 14 14 15 14 14 15 15 15 14 14 14 13 13 13 13 13 13 12 12 11 11
9 10 10 10 11 11 11 11 11 12 12 12 13 14 14 12 13 14 14 14 14 14 14 14 15 15 15 15 16 16 15 15 14 14 14 14 14 14 13 12 12 12 12
9 10 10 10 11 11 11 11 11 11 11 11 12 14 14 14 14 13 14 14 14 14 14 15 15 14 14 15 14 15 15 15 16 16 16 16 15 14 14 13 13 13 13
10 10 10 10 11 10 10 10 10 10 10 11 12 12 13 14 14 14 14 14 15 15 15 15 15 15 15 15 15 15 15 16 17 16 16 16 16 15 15 15 14 14 14
11 11 10 11 10 10 10 10 10 10 10 11 11 12 13 13 13 12 13 13 14 15 15 15 15 15 15 15 15 15 15 15 15 15 16 16 16 16 16 16 16 16 16
12 13 13 12 11 11 11 11 11 11 11 11 11 12 12 13 13 12 12 13 13 14 15 15 16 16 15 15 14 14 15 15 16 16 16 16 16 16 16 16 17 17 16
13 13 14 13 13 12 12 12 12 12 12 12 11 11 12 12 12 13 13 13 14 14 14 15 15 15 15 15 15 15 15 16 16 16 16 16 15 16 16 16 16 16 16
13 13 13 13 14 14 13 13 13 13 13 13 12 12 12 13 13 14 14 14 15 15 15 15 15 15 16 16 16 16 16 16 16 16 17 17 17 17 17 17 17 17 16
14 14 14 14 14 14 14 14 14 14 13 13 13 13 14 14 14 14 15 15 15 15 15 16 16 15 16 16 17 16 17 18 18 17 17 17 17 17 17 17 17 17 16
15 15 15 15 15 15 14 14 14 13 13 13 14 14 14 15 15 15 15 15 15 15 15 16 16 16 16 17 17 17 18 18 18 18 18 17 18 18 18 18 17 17 17
16 16 16 16 16 15 15 14 14 14 14 14 14 14 14 14 15 15 15 15 15 15 16 16 17 17 17 18 18 18 18 18 18 18 18 18 17 18 18 18 18 18 17
17 17 17 17 16 16 16 15 15 15 14 14 14 14 14 14 15 15 15 15 15 15 15 15 15 16 17 17 17 17 17 17 16 16 17 17 17 17 17 17 17 17 17
18 18 17 17 17 17 17 16 16 16 15 15 15 15 15 15 15 16 16 16 16 15 15 15 16 16 16 15 15 15 15 16 15 15 17 17 18 18 18 18 18 18 18
18 18 18 18 17 17 17 17 17 16 16 16 16 16 16 16 16 17 17 17 17 16 16 16 16 16 16 15 15 15 15 15 15 15 16 17 18 18 18 19 19 18 18
19 19 19 18 18 18 18 17 17 17 17 17 17 17 17 17 17 17 17 18 18 18 17 17 17 16 16 16 16 15 16 16 16 16 16 17 17 18 19 19 19 19 19
19 19 19 19 19 19 18 17 17 17 17 17 17 17 17 17 17 17 17 18 18 18 18 18 18 17 17 17 17 17 17 17 17 17 17 16 17 18 19 19 19 19 20
19 19 19 19 18 18 18 17 17 18 17 17 17 18 18 18 18 18 18 18 18 18 18 18 18 18 19 19 19 19 19 18 18 18 18 18 18 18 18 19 20 21 21
20 20 19 19 18 18 18 18 17 18 18 18 18 18 18 18 18 18 19 19 19 19 18 18 19 19 19 20 20 20 20 20 20 20 19 19 19 19 19 20 20 21 22
20 20 19 19 19 19 19 19 18 18 18 19 19 19 19 19 19 19 19 19 20 19 19 19 19 20 20 20 20 20 20 20 20 21 20 20 20 21 21 20 20 21 22
21 20 20 20 20 19 19 19 19 19 19 20 20 20 20 19 19 19 19 19 20 20 20 19 20 20 20 20 20 20 20 20 20 21 21 21 22 22 21 21 21 21 21
21 21 21 21 21 20 20 20 21 21 21 21 21 20 20 20 20 20 20 20 20 20 20 21 21 21 20 20 20 21 20 21 21 21 22 22 22 23 23 22 21 22 22
23 22 22 22 21 21 21 21 21 22 22 22 22 21 21 21 21 21 21 21 21 21 21 21 21 21 21 22 22 22 21 21 21 22 23 23 23 23 23 23 23 22 23
23 22 22 22 22 21 21 22 22 22 22 22 22 22 22 21 21 21 21 21 22 22 22 22 22 22 22 22 23 23 23 23 23 23 24 23 23 24 24 24 24 24 25
23 23 23 22 22 22 22 22 22 22 22 22 22 21 21 21 22 22 22 22 22 22 22 23 22 22 22 22 23 23 24 24 24 24 24 24 25 25 25 26 26 27 27
25 24 24 23 23 23 23 23 23 23 23 22 22 21 21 22 22 23 23 23 23 23 23 23 23 23 23 24 24 24 24 24 24 24 25 25 25 26 26 27 27 28 28
26 25 25 25 24 24 23 23 24 23 23 23 23 23 23 23 23 23 23 24 24 23 24 24 23 23 24 24 25 25 24 25 25 25 26 26 26 27 27 27 28 28 29
Wind_Direction
301 302 301 298 294 292 291 286 279 276 271 263 258 256 255 253 255 253 252 251 252 255 256 257 255 256 257 256 257 256 261 261 257 256 258 257 255 252 251 252 255 257 254
305 303 303 300 297 294 292 292 289 286 276 266 260 258 255 254 251 252 254 255 255 255 255 256 255 255 257 258 256 256 258 258 259 259 258 258 259 253 251 251 252 257 261
312 309 305 302 300 297 293 290 290 287 281 273 265 261 260 258 258 257 254 254 253 252 254 255 251 254 257 257 255 256 255 257 258 259 259 260 259 256 254 254 254 258 263
313 314 310 306 304 302 296 291 289 287 282 276 271 266 262 262 261 262 260 258 256 254 255 256 255 255 257 258 259 257 256 257 258 257 258 258 255 254 254 255 256 259 262
307 309 309 309 306 303 298 290 287 286 285 280 274 269 265 266 264 262 260 260 260 258 259 261 263 256 255 258 259 257 256 257 260 259 258 258 256 253 253 253 256 258 261
305 307 307 305 303 304 301 294 288 285 284 284 279 273 267 266 266 265 264 264 264 265 266 268 268 261 258 259 260 259 256 258 259 259 259 259 257 254 253 253 255 256 256
304 305 305 304 301 302 303 300 293 287 285 283 281 276 271 270 268 265 265 266 265 265 268 270 269 264 259 257 258 260 262 261 259 257 257 258 257 256 254 252 253 253 254
302 301 301 301 302 303 301 298 296 293 290 288 284 276 273 273 270 267 265 267 268 267 267 269 270 268 267 266 262 261 262 262 262 261 261 258 256 255 254 252 251 251 253
298 298 298 298 299 300 299 296 294 293 291 288 284 280 276 273 272 269 267 267 268 268 269 270 270 269 270 270 267 266 265 264 264 263 262 260 258 256 254 253 252 252 254
296 296 296 296 295 296 297 295 292 291 290 289 286 283 280 275 274 271 269 268 269 268 269 270 270 271 270 270 270 267 265 265 264 261 261 260 259 258 257 255 254 254 255
294 295 295 296 296 294 293 292 291 289 287 285 284 284 282 279 277 275 272 272 273 272 271 272 271 272 273 272 271 268 265 263 262 259 258 259 258 257 256 254 254 254 254
292 293 294 294 293 292 291 289 289 287 286 284 282 281 281 279 277 277 277 276 276 277 278 279 278 278 276 277 273 270 266 264 262 261 260 260 258 257 255 253 252 253 253
290 291 292 291 291 290 290 287 286 285 283 282 282 281 280 279 276 275 274 274 275 276 277 280 282 281 279 279 277 272 267 265 264 264 263 262 260 258 255 254 253 253 254
289 291 291 290 289 289 290 288 284 283 281 281 280 280 280 278 277 275 273 272 272 273 274 277 280 278 276 276 274 271 269 268 268 267 266 264 261 257 257 256 254 254 255
289 289 289 289 289 289 289 288 286 284 282 281 281 280 280 279 277 277 276 273 271 271 272 276 277 274 271 272 272 270 269 270 269 269 270 268 263 260 259 257 255 255 256
288 290 289 288 287 286 287 286 286 285 283 281 281 280 279 278 277 276 276 275 274 273 272 273 272 271 271 271 271 270 270 271 271 271 272 271 266 264 262 258 256 256 257
288 289 288 288 286 284 285 285 285 285 284 283 281 281 279 277 277 276 275 275 275 274 273 272 271 271 272 272 273 272 270 271 272 272 272 270 268 266 265 262 260 259 259
288 287 286 286 286 284 282 282 284 284 283 283 283 281 279 278 277 277 275 274 275 275 273 272 272 272 273 273 272 271 270 271 271 271 271 270 268 267 266 264 263 259 258
287 286 285 285 284 283 282 281 281 281 280 281 282 281 279 277 277 277 276 275 274 274 272 272 272 272 273 273 273 272 272 271 270 268 267 266 267 267 267 266 262 259 257
285 285 285 285 284 282 280 280 280 280 280 280 281 281 279 277 276 275 274 274 274 274 274 273 273 274 274 274 273 274 272 271 270 268 267 267 266 267 268 267 265 264 262
284 285 285 284 283 279 277 277 277 279 280 279 280 278 279 278 275 275 273 274 275 275 274 273 274 275 274 273 273 274 273 271 271 271 270 269 268 268 269 269 267 266 264
283 284 284 283 282 280 278 277 277 278 279 281 281 279 279 279 277 276 274 275 275 275 274 273 273 274 274 273 273 273 273 272 272 271 270 269 269 268 268 269 268 266 267
283 284 284 282 281 280 280 279 278 278 279 281 283 283 280 279 277 275 276 275 274 275 275 274 275 275 275 273 272 271 272 272 272 271 270 271 271 270 270 269 269 267 267
281 283 283 282 280 279 279 279 278 278 278 279 281 283 281 278 278 276 276 276 277 276 275 274 274 274 274 273 272 272 273 273 272 271 271 271 271 270 270 270 270 269 267
281 282 281 280 279 277 278 277 278 277 278 279 279 281 282 280 280 277 275 275 275 276 276 275 275 274 275 273 273 273 273 272 273 274 274 273 272 271 271 272 272 271 269
281 282 281 280 278 276 278 278 277 277 278 278 279 279 279 280 279 278 277 276 275 274 274 275 275 275 275 275 274 273 272 274 274 275 276 275 274 273 273 274 275 274 273
Height
5838 5838 5837 5837 5836 5836 5836 5836 5836 5836 5837 5837 5837 5838 5839 5839 5840 5841 5841 5842 5843 5844 5844 5845 5846 5846 5847 5848 5848 5849 5849 5850 5851 5852 5852 5853 5854 5855 5856 5856 5857 5857 5858
5837 5836 5836 5835 5834 5834 5833 5833 5834 5834 5834 5834 5835 5835 5836 5836 5837 5838 5838 5839 5840 5841 5842 5842 5842 5843 5844 5844 5845 5845 5846 5847 5848 5849 5849 5850 5851 5852 5853 5854 5855 5855 5856
5835 5835 5834 5833 5833 5832 5831 5831 5831 5831 5831 5832 5832 5832 5833 5834 5834 5834 5835 5836 5837 5838 5839 5839 5839 5840 5841 5841 5841 5842 5843 5844 5845 5846 5846 5847 5848 5849 5850 5851 5852 5853 5853
5834 5833 5832 5832 5831 5830 5830 5829 5829 5829 5829 5829 5829 5830 5830 5831 5831 5831 5832 5833 5834 5835 5836 5836 5836 5836 5837 5838 5838 5839 5840 5841 5841 5842 5843 5844 5845 5846 5847 5848 5849 5850 5851
5832 5831 5831 5830 5829 5828 5828 5827 5827 5827 5827 5827 5827 5827 5827 5828 5828 5829 5829 5830 5831 5832 5833 5833 5833 5833 5834 5834 5835 5836 5836 5837 5838 5838 5839 5840 5841 5842 5843 5844 5846 5847 5847
5830 5829 5828 5828 5827 5826 5826 5825 5825 5824 5824 5824 5824 5824 5824 5825 5825 5826 5827 5828 5828 5829 5829 5830 5830 5830 5830 5831 5832 5832 5833 5834 5834 5835 5836 5837 5837 5838 5840 5841 5842 5843 5844
5828 5827 5826 5825 5825 5824 5824 5823 5823 5822 5822 5822 5822 5822 5822 5822 5822 5823 5824 5825 5825 5826 5826 5826 5827 5827 5827 5828 5828 5829 5830 5830 5831 5831 5832 5833 5834 5835 5836 5837 5838 5839 5840
5825 5825 5824 5823 5822 5822 5821 5821 5820 5820 5819 5819 5819 5819 5819 5820 5820 5820 5821 5821 5822 5822 5822 5823 5823 5823 5823 5824 5825 5825 5826 5826 5827 5827 5828 5829 5830 5830 5832 5833 5834 5835 5836
5823 5822 5821 5821 5820 5819 5818 5818 5817 5817 5816 5816 5816 5816 5816 5816 5816 5817 5817 5818 5818 5818 5819 5819 5819 5820 5820 5820 5821 5821 5822 5822 5823 5823 5824 5825 5825 5826 5827 5828 5830 5831 5832
5820 5819 5818 5817 5817 5816 5815 5815 5814 5814 5813 5813 5813 5813 5813 5813 5813 5814 5814 5814 5814 5815 5815 5815 5816 5816 5816 5817 5817 5817 5818 5818 5818 5819 5819 5820 5821 5822 5823 5824 5826 5827 5828
5816 5815 5815 5814 5813 5813 5812 5811 5811 5811 5810 5810 5810 5809 5809 5809 5810 5810 5811 5811 5811 5811 5811 5812 5812 5812 5812 5812 5813 5813 5813 5814 5814 5814 5815 5815 5816 5817 5818 5819 5821 5822 5824
5812 5812 5811 5810 5810 5809 5808 5808 5807 5807 5807 5806 5806 5806 5806 5806 5806 5806 5807 5807 5807 5807 5807 5807 5808 5808 5808 5808 5808 5808 5809 5809 5809 5809 5810 5810 5811 5812 5813 5815 5816 5818 5819
5808 5808 5807 5806 5805 5805 5804 5803 5803 5803 5803 5803 5802 5802 5802 5802 5802 5802 5803 5803 5803 5804 5803 5804 5803 5803 5803 5803 5804 5804 5804 5805 5805 5805 5806 5806 5806 5807 5808 5810 5811 5813 5814
5804 5803 5802 5802 5801 5800 5800 5799 5799 5799 5799 5798 5798 5798 5798 5798 5798 5798 5799 5799 5799 5799 5799 5799 5799 5799 5799 5799 5800 5800 5800 5801 5801 5801 5801 5801 5801 5802 5803 5804 5806 5808 5809
5800 5799 5798 5797 5796 5796 5795 5795 5794 5794 5794 5794 5794 5794 5794 5794 5793 5793 5794 5794 5795 5795 5795 5795 5795 5795 5795 5795 5795 5796 5796 5796 5797 5797 5797 5796 5796 5797 5798 5800 5801 5803 5804
5795 5794 5793 5792 5792 5791 5791 5790 5790 5790 5789 5789 5789 5789 5789 5789 5789 5789 5789 5789 5790 5790 5790 5790 5791 5791 5791 5791 5791 5791 5792 5792 5792 5792 5792 5792 5792 5792 5793 5794 5796 5797 5799
5790 5789 5788 5788 5787 5787 5786 5786 5786 5785 5785 5784 5784 5784 5784 5784 5784 5784 5784 5784 5785 5785 5786 5786 5786 5786 5786 5786 5786 5787 5787 5787 5787 5787 5787 5787 5787 5788 5789 5789 5790 5792 5793
5785 5784 5783 5783 5782 5782 5782 5781 5781 5780 5780 5780 5779 5779 5779 5779 5779 5779 5779 5779 5779 5780 5780 5781 5780 5781 5781 5781 5781 5781 5782 5782 5782 5782 5782 5783 5783 5783 5784 5784 5785 5786 5788
5779 5778 5778 5778 5777 5777 5777 5776 5776 5775 5775 5775 5774 5774 5774 5774 5774 5774 5774 5774 5774 5774 5775 5775 5775 5775 5775 5775 5775 5776 5776 5776 5776 5777 5777 5777 5778 5778 5779 5779 5780 5780 5781
5773 5773 5772 5772 5772 5771 5771 5771 5771 5770 5770 5770 5769 5769 5769 5768 5768 5768 5768 5768 5768 5768 5769 5769 5769 5769 5769 5769 5769 5770 5770 5770 5770 5770 5771 5771 5772 5772 5773 5774 5774 5774 5775
5767 5767 5766 5766 5766 5765 5765 5765 5765 5765 5764 5764 5764 5763 5763 5763 5763 5762 5762 5762 5762 5762 5763 5763 5763 5763 5763 5763 5763 5763 5764 5764 5764 5764 5764 5765 5765 5766 5766 5767 5767 5768 5768
5761 5761 5760 5760 5759 5759 5759 5759 5759 5759 5758 5758 5757 5757 5757 5757 5756 5756 5756 5756 5756 5756 5756 5756 5757 5757 5757 5757 5757 5757 5757 5757 5758 5758 5758 5758 5758 5759 5759 5760 5760 5761 5762
5755 5754 5754 5753 5753 5753 5752 5752 5752 5752 5752 5752 5751 5751 5750 5750 5750 5750 5750 5750 5750 5750 5750 5750 5750 5750 5750 5750 5750 5750 5750 5750 5750 5750 5751 5751 5751 5752 5752 5752 5753 5753 5754
5748 5748 5747 5747 5747 5746 5746 5746 5745 5745 5745 5745 5745 5745 5744 5744 5743 5743 5743 5743 5743 5743 5743 5743 5743 5743 5743 5743 5743 5743 5743 5743 5743 5743 5743 5744 5744 5744 5744 5744 5744 5745 5745
5741 5741 5740 5740 5740 5740 5739 5739 5738 5738 5738 5738 5739 5738 5738 5737 5737 5737 5737 5737 5737 5736 5736 5736 5736 5736 5735 5735 5735 5735 5735 5735 5736 5736 5736 5736 5736 5736 5736 5736 5736 5736 5736
5734 5734 5733 5733 5733 5733 5732 5732 5731 5731 5732 5732 5732 5731 5731 5731 5730 5730 5729 5730 5730 5729 5729 5729 5729 5729 5728 5728 5728 5728 5728 5728 5728 5728 5728 5728 5728 5728 5728 5728 5727 5727 5727